Вернуться в каталог

NOAA 16 DEB

АктивенPO
NORAD 41256·DEBRIS·🇺🇸 United States

Запущен Sep 21, 2000 с Vandenberg Space Force Base

Loading…

Ближайшие Пролёты (ближайшие 24 часа)

TLE

СвежийSource: Space-Track

Эпоха: Sep 13, 2026, 05:46 UTC

1 41256U 00055FG  26256.24080369  .00006894  00000-0  14779-2 0  9998
2 41256  99.0800 172.6935 0009922 251.1052 108.9069 14.58994928557017

Отслеживайте NOAA 16 DEB в реальном времени с AllMySat

Download on the App Store